ニート彗星

P/2001 F1 ( NEAT )

English version
Home page
Updated on May 10, 2003

---------------------------------------------------------------------

・ プロフィール

発見日 2001年3月24日
発見光度 19.7等
発見者 Near-Earth-Asteroid Tracking Team (Jet Propulsion Laboratory)

・ 軌道要素

Epoch 2000 Dec. 2.0 TT = JDT 2451880.5
T 2000 Nov. 21.8341 TT                                  Nakano
q   4.152567             (2000.0)            P               Q
n   0.0602341      Peri.   80.6985      -0.9394568      -0.1036894
a   6.445270       Node    92.8383      -0.0226236      -0.9322712
e   0.355719       Incl.   19.0870      +0.3419196      -0.3465818
P  16.4
From 123 observations 2001 Mar. 24-July 23, mean residual 0".7.

・ 星図

・ 光度変化

        m1 = 9.5 + 5 logΔ + 10.0 log r

---------------------------------------------------------------------

軌道要素は中野主一氏の計算によるもので、MPCのEphemerides and Orbital Elementsに掲載されたものです。
星図は StellaNavigator Ver.2.0 for Windows (アストロアーツ 編著 / アスキー出版局刊) で作成したものです。
光度グラフはComet for Windowsで作成したものです。

---------------------------------------------------------------------

Copyright(C) Seiichi Yoshida (comet@aerith.net). All rights reserved.